This is the latest recevied weather packets stored in our database for station/object KD7CIH. If no packets are shown the sender has not sent any weather packets the latest 10 day(s).
| Time | Temp. | Humidity | Pressure | Rain* | Wind** | Luminosity | Snow |
|---|---|---|---|---|---|---|---|
| 1777856048 | 18.33° C | 17% | 1006.9 hPa | 0 mm | - | - | - |
| 1777855750 | 18.33° C | 16% | 1006.9 hPa | 0 mm | - | - | - |
| 1777855449 | 18.33° C | 17% | 1007 hPa | 0 mm | - | - | - |
| 1777855146 | 18.89° C | 16% | 1007 hPa | 0 mm | - | - | - |
| 1777854846 | 19.44° C | 16% | 1006.9 hPa | 0 mm | - | - | - |
| 1777854546 | 19.44° C | 16% | 1006.9 hPa | 0 mm | - | - | - |
| 1777854247 | 19.44° C | 15% | 1006.9 hPa | 0 mm | - | - | - |
| 1777854073 | 18.89° C | 14% | 1006.9 hPa | 0 mm | - | - | - |
| 1777853647 | 18.89° C | 15% | 1007 hPa | 0 mm | - | - | - |
| 1777853346 | 18.89° C | 14% | 1007 hPa | 0 mm | - | - | - |
| 1777853047 | 19.44° C | 14% | 1007 hPa | 0 mm | - | - | - |
| 1777852745 | 19.44° C | 14% | 1007 hPa | 0 mm | - | - | - |
| 1777852446 | 19.44° C | 13% | 1007 hPa | 0 mm | - | - | - |
| 1777852146 | 20° C | 14% | 1007 hPa | 0 mm | - | - | - |
| 1777851847 | 20° C | 14% | 1007.1 hPa | 0 mm | - | - | - |
| 1777851545 | 19.44° C | 13% | 1007.2 hPa | 0 mm | - | - | - |
| 1777851245 | 20° C | 14% | 1007.3 hPa | 0 mm | - | - | - |
| 1777850945 | 20° C | 13% | 1007.3 hPa | 0 mm | - | - | - |
| 1777850647 | 20° C | 13% | 1007.2 hPa | 0 mm | - | - | - |
| 1777850346 | 20.56° C | 13% | 1007.5 hPa | 0 mm | - | - | - |
| 1777850047 | 20° C | 14% | 1007.5 hPa | 0 mm | - | - | - |
| 1777849745 | 20° C | 15% | 1007.6 hPa | 0 mm | - | - | - |
| 1777849440 | 20° C | 14% | 1007.6 hPa | 0 mm | - | - | - |
| 1777849132 | 19.44° C | 14% | 1007.6 hPa | 0 mm | - | - | - |
| 1777848826 | 19.44° C | 13% | 1007.7 hPa | 0 mm | - | - | - |
* Rain latest hour (hover to see other rain measurements)
** Current wind speed in m/s (hover to see current wind gust speed)